TimeEST,TemperatureF,Dew PointF,Humidity,Sea Level PressureIn,VisibilityMPH,Wind Direction,Wind SpeedMPH,Gust SpeedMPH,PrecipitationIn,Events,Conditions,WindDirDegrees,DateUTC
12:56 AM,55.9,53.1,90,30.30,10.0,Calm,Calm,-,N/A,,Clear,0,2012-12-04 05:56:00
1:56 AM,55.0,52.0,89,30.30,9.0,Calm,Calm,-,N/A,,Clear,0,2012-12-04 06:56:00
2:33 AM,53.6,51.8,94,30.30,1.8,Calm,Calm,-,N/A,,Clear,0,2012-12-04 07:33:00
2:56 AM,54.0,52.0,93,30.30,10.0,Calm,Calm,-,N/A,,Clear,0,2012-12-04 07:56:00
3:10 AM,51.8,50.0,94,30.29,0.5,Calm,Calm,-,N/A,Fog,Fog,0,2012-12-04 08:10:00
3:23 AM,48.2,48.2,100,30.29,0.5,Calm,Calm,-,N/A,Fog,Fog,0,2012-12-04 08:23:00
3:35 AM,50.0,46.4,87,30.29,0.2,Calm,Calm,-,N/A,Fog,Fog,0,2012-12-04 08:35:00
3:54 AM,50.0,46.4,87,30.29,0.2,Calm,Calm,-,N/A,Fog,Fog,0,2012-12-04 08:54:00
3:56 AM,51.1,48.0,89,30.30,0.2,Calm,Calm,-,N/A,Fog,Fog,0,2012-12-04 08:56:00
4:12 AM,48.2,46.4,93,30.29,0.2,Calm,Calm,-,N/A,Fog,Fog,0,2012-12-04 09:12:00
4:32 AM,48.2,46.4,93,30.29,0.5,Calm,Calm,-,N/A,Fog,Fog,0,2012-12-04 09:32:00
4:56 AM,46.9,45.0,93,30.30,0.5,Calm,Calm,-,N/A,Fog,Fog,0,2012-12-04 09:56:00
5:03 AM,46.4,44.6,93,30.30,0.2,Calm,Calm,-,N/A,Fog,Fog,0,2012-12-04 10:03:00
5:56 AM,46.9,44.1,90,30.31,0.2,Calm,Calm,-,N/A,Fog,Fog,0,2012-12-04 10:56:00
6:28 AM,46.4,44.6,93,30.32,0.2,Calm,Calm,-,N/A,Fog,Fog,0,2012-12-04 11:28:00
6:56 AM,46.0,43.0,89,30.33,0.2,Calm,Calm,-,N/A,Fog,Fog,0,2012-12-04 11:56:00
7:12 AM,46.4,44.6,93,30.33,0.2,Calm,Calm,-,N/A,Fog,Fog,0,2012-12-04 12:12:00
7:56 AM,48.9,46.9,93,30.35,0.2,Calm,Calm,-,0.01,Fog,Fog,0,2012-12-04 12:56:00
8:03 AM,50.0,48.2,94,30.34,0.2,Calm,Calm,-,N/A,Fog,Fog,0,2012-12-04 13:03:00
8:06 AM,51.8,48.2,88,30.34,2.0,Calm,Calm,-,N/A,,Mist,0,2012-12-04 13:06:00
8:29 AM,53.6,51.8,94,30.34,7.0,Calm,Calm,-,N/A,,Scattered Clouds,0,2012-12-04 13:29:00
8:56 AM,55.9,54.0,93,30.36,10.0,Calm,Calm,-,N/A,,Scattered Clouds,0,2012-12-04 13:56:00
9:56 AM,64.9,57.0,75,30.37,10.0,Calm,Calm,-,N/A,,Scattered Clouds,0,2012-12-04 14:56:00
10:56 AM,68.0,57.9,70,30.35,10.0,West,3.5,-,N/A,,Overcast,260,2012-12-04 15:56:00
11:56 AM,73.0,57.0,57,30.32,10.0,Calm,Calm,-,N/A,,Mostly Cloudy,0,2012-12-04 16:56:00
12:56 PM,73.0,57.0,57,30.30,10.0,WSW,8.1,-,N/A,,Mostly Cloudy,250,2012-12-04 17:56:00
1:56 PM,73.9,57.0,55,30.26,10.0,SSW,9.2,-,N/A,,Mostly Cloudy,210,2012-12-04 18:56:00
2:56 PM,72.0,55.0,55,30.25,10.0,WSW,8.1,-,N/A,,Scattered Clouds,240,2012-12-04 19:56:00
3:56 PM,70.0,57.9,65,30.26,10.0,South,9.2,-,N/A,,Scattered Clouds,170,2012-12-04 20:56:00
4:56 PM,64.9,57.0,75,30.25,10.0,South,6.9,-,N/A,,Scattered Clouds,180,2012-12-04 21:56:00
5:56 PM,63.0,55.9,78,30.26,10.0,South,5.8,-,N/A,,Scattered Clouds,190,2012-12-04 22:56:00
6:56 PM,63.0,55.9,78,30.27,10.0,SSW,8.1,-,N/A,,Partly Cloudy,200,2012-12-04 23:56:00
7:56 PM,63.0,57.0,81,30.27,10.0,SSW,8.1,-,N/A,,Clear,200,2012-12-05 00:56:00
8:56 PM,62.1,57.0,84,30.26,10.0,SW,4.6,-,N/A,,Mostly Cloudy,220,2012-12-05 01:56:00
9:56 PM,61.0,55.9,83,30.26,10.0,SSW,5.8,-,N/A,,Partly Cloudy,210,2012-12-05 02:56:00
10:56 PM,61.0,55.9,83,30.25,10.0,SW,4.6,-,N/A,,Scattered Clouds,220,2012-12-05 03:56:00
11:56 PM,61.0,55.9,83,30.24,10.0,WSW,6.9,-,N/A,,Mostly Cloudy,240,2012-12-05 04:56:00